COSMOS 1275 DEB

Satellite information

Favourite Embed

Satellite Type and Status

DEBRISIN ORBIT

Key statistics

Satellite COSMOS 1275 DEB at a glance.

Uptime

16263

Days in orbit

Revolutions

≈ 14.3

Per day

Orbit

LEO

Low Earth Orbit

Inclination

82.9

Latest

Satellite identification and parameters

Extended collection of information and parameters for COSMOS 1275 DEB.

Object identification

Identified? True

Debris? True

Object name: COSMOS 1275 DEB

International designator: 1981-053PK

Object number (NORAD): 42099

Object ID (CCSDS): 42099

Country: COMMONWEALTH OF INDEPENDENT STATES (CIS)

Current information (Y/N): Y

RCS size: SMALL

Orbital parameters

Period: 100.587 minutes

Inclination: 82.8519 deg

SMA: 7164.548 km

Apoapsis: 806.911 km

Periapsis: 765.916 km

RAAN: 186.1546 deg

Eccentricy: 0.00286102

Argument of periapsis: 236.1709 deg

Mean anomaly: 123.6755 deg

Mean motion: 14.31592859 rev/day

Mean motion (dot): 0.00008667 rev/day2

B* drag term: 0.0032346468 1/REarth

Two-line elements (TLE)

Creation date: Dec. 11, 2025, 10:54 a.m.

Reference frame: TEME

Reference center: EARTH

Epoch: Dec. 11, 2025, 6:53 a.m. UTC

TLE line 0: 0 COSMOS 1275 DEB

TLE line 1: 1 42099U 81053PK 25345.28688938 .00008667 00000-0 32346-2 0 9999

TLE line 2: 2 42099 82.8519 186.1546 0028610 236.1709 123.6755 14.31592859509577

Live tracking on map

Real-time ground track for satellite COSMOS 1275 DEB.

In-orbit conjunctions

A list of the most updated potential collisions computed for object COSMOS 1275 DEB.

Target Orbit TCA Probability of collision Miss distance Type
IRIDIUM 63 LEO 2025-10-01 19:59:02 0.0001033516 403.0 (m) PAYLOAD
CZ-6A DEB LEO 2025-01-17 21:23:23 0.0001042627 801.0 (m) DEBRIS
FENGYUN 1C DEB SSO 2024-11-15 17:29:03 0.0003624367 334.0 (m) DEBRIS
DELTA 1 DEB SSO 2024-07-02 02:18:56 0.0001882089 104.0 (m) DEBRIS

Associated space launch

Navigation satellite providing location information for the Tsiklon-B navigation system

COSMOS 1275 DEB was lifted into orbit during the mission ‘Kosmos-3M | Parus 27’, on board a Kosmos-3M space rocket.

The launch took place on June 4, 1981, 3:41 p.m. from 132/2.

For more information about the launch, click the button.

Launch to space Kosmos-3M | Parus 27
Kosmos-3M | Parus 27

Agency: N/A

Status: Launch Successful

Launch date: June 4, 1981, 3:41 p.m. UTC

Rocket: Kosmos-3M

Launch pad: 132/2

Location: Plesetsk Cosmodrome, Russian Federation

...

Latest news about this satellite

There are no fresh news available about this satellite. Check back as we update our databases every day.


Newsletter sign-up

Weekly statistics, charts and insights to help you stay on top of the space industry.